Wind_Speed
18 18 19 20 20 20 20 20 20 21 22 22 22 23 23 24 24 24 24 24 24 24 24 24 24 24 24 24 24 24 24 23 23 23 23 23 24 24
20 20 21 21 21 22 22 22 22 22 21 23 24 24 24 25 26 25 25 25 26 26 26 26 26 26 26 26 26 26 26 25 25 24 25 25 25 25
22 23 22 22 23 23 24 24 24 25 24 23 24 25 26 27 28 28 28 28 28 28 28 29 29 28 27 27 27 27 27 27 27 27 27 26 27 27
23 23 24 24 25 25 25 26 26 27 26 26 26 27 28 28 29 29 30 30 30 30 30 30 31 30 29 29 30 30 29 29 29 29 28 28 28 28
24 25 25 26 26 27 28 28 28 29 29 28 28 29 29 30 30 30 30 31 32 32 32 31 31 31 31 31 31 32 31 30 30 30 30 29 29 30
27 27 27 28 28 29 29 29 29 29 29 30 30 31 31 31 31 31 31 33 33 33 32 32 32 32 32 32 32 32 32 32 32 32 31 31 31 31
30 30 29 30 30 30 30 29 29 30 30 31 31 31 31 31 32 32 32 33 32 32 32 33 33 33 33 32 33 32 32 33 33 33 33 33 33 33
31 31 32 32 32 32 32 32 32 32 32 32 31 31 31 32 33 33 33 33 32 32 32 33 33 33 33 33 33 33 33 33 33 34 34 34 34 34
32 33 33 33 33 33 33 33 33 32 32 32 32 32 33 33 34 34 34 34 33 33 33 33 33 33 33 34 34 34 34 34 34 34 34 34 35 35
33 34 34 34 34 34 33 33 32 33 33 33 33 33 33 33 33 34 34 34 33 33 33 34 33 33 33 33 34 34 35 35 35 35 34 35 35 35
34 34 35 34 33 33 33 32 32 32 33 33 33 33 33 33 33 34 34 34 33 34 35 35 34 34 35 34 35 35 35 34 34 35 35 35 35 35
34 34 35 34 34 33 33 33 32 32 33 33 34 34 34 33 34 34 34 34 34 34 35 36 36 36 36 36 36 36 36 36 36 36 36 36 35 36
33 34 34 34 33 33 33 33 33 33 33 33 33 33 34 34 34 34 35 35 35 35 36 36 37 37 36 36 37 37 37 37 37 37 36 36 35 35
34 34 34 34 33 33 33 33 34 34 33 32 32 32 33 34 34 35 35 35 36 36 36 36 37 37 37 37 36 37 36 36 36 35 35 35 35 35
34 34 34 33 32 32 32 32 32 33 33 32 32 32 32 33 33 34 35 35 36 36 36 36 36 36 36 36 36 36 36 36 36 36 35 34 34 34
34 34 34 32 33 33 32 32 32 31 31 31 31 32 32 32 33 34 34 35 35 35 35 35 34 35 35 36 36 36 36 36 36 36 35 35 34 34
33 32 31 31 31 32 32 32 32 32 32 32 32 32 33 33 33 33 34 34 34 34 34 34 34 34 34 34 35 35 35 34 34 34 34 34 35 34
31 30 30 30 31 31 30 30 30 31 32 32 32 32 32 32 33 33 33 33 33 33 33 34 34 33 33 33 33 33 34 34 34 34 34 34 34 34
30 30 30 30 30 29 29 29 30 30 30 31 31 31 31 31 32 32 32 32 32 32 32 32 32 32 32 32 32 32 33 33 33 34 34 34 34 34
30 30 30 30 29 29 29 30 30 30 29 30 30 30 31 31 31 30 30 30 30 30 29 30 30 30 30 30 30 31 32 32 33 33 33 34 34 35
28 29 29 29 29 29 30 30 30 29 30 30 30 30 30 29 29 29 28 28 27 27 27 28 29 29 29 29 29 29 31 32 32 32 32 32 33 34
28 29 29 29 29 29 30 30 30 29 29 29 29 28 28 28 27 27 27 27 27 26 27 27 28 28 28 28 29 30 30 30 31 31 31 30 30 31
29 29 29 29 29 29 29 29 29 29 29 28 28 28 27 27 27 26 27 26 27 27 27 27 27 27 27 28 28 28 28 29 29 29 30 30 30 30
Wind_Direction
283 283 285 287 288 288 286 284 283 282 280 278 277 277 273 271 271 272 271 271 273 274 274 272 271 272 272 275 276 276 277 277 276 276 277 278 277 276
282 283 284 285 287 287 286 285 284 284 281 279 278 276 275 274 272 272 271 272 273 274 274 272 271 272 272 273 275 276 277 275 275 276 277 277 276 276
282 284 284 284 286 285 284 284 283 283 281 279 279 278 277 276 273 273 273 273 274 275 274 273 272 271 272 272 274 275 275 275 275 275 276 276 276 277
282 283 284 283 285 285 284 283 282 281 281 279 279 279 277 276 275 275 274 273 274 274 274 274 273 272 272 272 273 274 275 275 276 276 276 276 276 277
283 283 284 283 284 284 283 283 282 280 280 280 279 279 278 277 278 277 276 276 275 275 275 275 274 272 272 273 274 274 273 276 277 277 276 276 277 277
285 286 284 283 284 284 284 283 283 280 279 279 279 280 279 278 278 276 276 276 276 275 273 272 273 273 273 273 274 276 275 275 276 276 275 276 276 277
285 285 283 284 284 283 283 283 282 281 279 278 279 280 280 278 278 277 277 277 277 275 272 271 271 272 272 273 274 275 275 276 276 276 275 275 276 276
284 284 283 282 281 281 281 282 281 280 280 279 279 280 280 280 279 277 276 276 276 275 274 273 274 274 275 275 275 275 275 276 276 276 276 276 276 276
283 283 283 282 280 279 281 281 281 281 282 281 280 279 280 279 278 277 276 275 274 274 273 275 275 276 275 275 276 276 276 276 276 276 276 277 276 276
283 283 284 282 281 281 282 283 283 283 283 281 280 280 279 278 278 278 277 275 274 274 274 275 276 276 275 275 276 277 277 278 278 278 278 277 278 279
286 284 284 282 282 282 283 283 283 283 283 282 281 280 279 278 277 278 277 276 276 275 275 276 275 276 276 275 276 277 278 279 279 279 280 280 280 280
287 287 286 283 282 282 282 282 281 282 281 281 280 280 279 278 279 278 277 277 276 276 276 276 276 276 276 276 276 277 278 279 280 280 281 280 280 280
288 288 288 285 283 283 282 281 281 281 280 280 279 280 280 279 279 278 278 278 278 278 278 277 277 276 275 275 276 277 278 278 279 280 281 281 281 280
288 289 288 284 283 282 282 281 280 280 280 280 280 280 281 281 280 279 279 279 279 279 279 278 278 276 274 274 275 276 278 278 279 280 281 281 281 281
289 288 287 284 283 283 282 282 280 280 280 280 280 281 281 282 281 280 280 279 280 280 279 278 277 276 275 275 275 275 276 277 278 278 279 280 281 281
290 288 287 286 285 285 284 283 281 281 281 282 282 282 282 282 281 279 279 279 280 279 278 279 278 276 275 274 274 274 275 276 277 278 279 280 280 280
289 288 287 286 285 285 285 285 283 282 282 282 283 284 283 283 282 281 280 280 279 278 278 278 277 277 276 275 275 276 277 278 278 280 280 280 281 280
289 289 287 287 286 285 284 284 284 284 284 284 283 283 284 283 283 283 282 282 280 279 278 277 277 277 277 276 276 278 279 279 279 280 280 281 281 280
287 288 288 287 286 285 285 284 284 284 285 284 283 284 285 285 284 285 284 282 281 280 280 278 278 278 278 278 278 279 280 280 280 279 279 280 281 281
288 288 287 286 286 287 286 286 285 284 284 285 285 286 286 286 286 285 285 284 282 281 280 280 280 279 280 280 279 280 280 280 280 280 280 281 281 281
290 290 289 287 286 286 286 287 286 285 286 286 286 287 288 288 288 288 286 285 284 282 281 282 282 282 282 281 280 280 281 281 282 283 281 281 281 282
290 290 291 290 287 287 287 287 287 286 287 288 288 288 288 288 288 289 288 286 285 285 285 285 285 285 284 283 282 281 281 282 283 283 282 282 284 286
289 289 289 290 290 288 288 288 287 287 286 287 287 287 287 288 288 288 289 287 285 285 285 285 285 284 285 284 283 283 284 284 283 284 284 284 284 287
Height
5863 5862 5862 5861 5860 5858 5858 5857 5857 5856 5855 5854 5853 5852 5851 5851 5851 5851 5851 5851 5851 5850 5849 5849 5849 5849 5849 5848 5848 5847 5847 5846 5845 5844 5844 5843 5843 5842
5858 5858 5857 5856 5855 5853 5852 5851 5850 5850 5849 5848 5847 5846 5845 5845 5845 5844 5844 5844 5844 5843 5843 5842 5842 5842 5842 5842 5841 5841 5840 5839 5838 5837 5837 5837 5836 5835
5853 5852 5851 5850 5849 5848 5846 5845 5844 5843 5843 5842 5841 5839 5839 5838 5838 5838 5838 5837 5836 5836 5835 5835 5835 5835 5834 5834 5834 5833 5832 5832 5831 5830 5830 5829 5829 5828
5847 5846 5845 5844 5843 5841 5840 5839 5837 5836 5835 5835 5834 5833 5832 5831 5830 5830 5829 5829 5829 5828 5827 5827 5827 5827 5827 5826 5826 5825 5825 5824 5823 5823 5822 5822 5821 5820
5840 5839 5838 5837 5836 5834 5833 5831 5830 5829 5828 5827 5826 5825 5824 5823 5822 5822 5821 5820 5820 5819 5819 5819 5818 5818 5818 5818 5818 5817 5816 5816 5815 5815 5814 5813 5812 5812
5833 5832 5830 5829 5828 5826 5825 5823 5822 5820 5819 5818 5818 5817 5816 5815 5814 5813 5812 5811 5811 5810 5810 5810 5810 5810 5810 5809 5809 5808 5807 5807 5806 5806 5805 5804 5804 5803
5825 5824 5822 5821 5819 5818 5816 5815 5813 5812 5811 5810 5809 5808 5807 5806 5805 5804 5803 5802 5801 5801 5801 5801 5800 5800 5800 5800 5800 5799 5798 5798 5797 5797 5796 5795 5794 5794
5817 5815 5814 5812 5811 5809 5807 5806 5804 5803 5802 5801 5799 5799 5798 5796 5795 5794 5793 5793 5793 5793 5791 5791 5791 5791 5791 5790 5790 5789 5789 5788 5788 5787 5786 5785 5785 5784
5808 5807 5805 5803 5801 5800 5798 5797 5795 5794 5793 5791 5790 5789 5788 5787 5785 5785 5784 5783 5783 5783 5782 5782 5782 5781 5781 5781 5780 5779 5779 5778 5778 5777 5776 5775 5775 5774
5799 5797 5795 5793 5791 5790 5789 5787 5786 5784 5783 5781 5781 5780 5778 5777 5775 5775 5774 5773 5774 5773 5772 5773 5773 5772 5771 5771 5770 5769 5769 5768 5768 5767 5766 5766 5765 5763
5790 5788 5786 5784 5782 5781 5780 5778 5777 5775 5773 5772 5770 5769 5768 5767 5766 5765 5764 5763 5763 5763 5762 5763 5763 5762 5761 5761 5760 5759 5758 5758 5757 5757 5756 5755 5754 5753
5780 5778 5776 5774 5772 5771 5770 5769 5768 5766 5764 5762 5760 5759 5758 5757 5756 5755 5754 5753 5753 5753 5752 5752 5752 5751 5751 5750 5750 5749 5748 5748 5747 5746 5745 5744 5743 5742
5770 5769 5766 5764 5762 5761 5759 5758 5757 5756 5754 5753 5751 5749 5748 5747 5746 5745 5744 5743 5742 5742 5742 5741 5741 5740 5740 5740 5739 5738 5738 5737 5736 5735 5735 5734 5733 5732
5761 5758 5756 5755 5753 5751 5749 5748 5747 5746 5744 5743 5742 5740 5739 5737 5736 5734 5733 5732 5732 5731 5731 5730 5729 5729 5729 5729 5729 5728 5727 5726 5726 5725 5724 5724 5723 5722
5751 5749 5746 5744 5743 5741 5740 5738 5737 5736 5735 5734 5732 5731 5729 5727 5726 5724 5723 5722 5721 5721 5720 5719 5719 5718 5718 5718 5718 5717 5716 5716 5715 5714 5714 5713 5712 5711
5742 5739 5737 5735 5733 5732 5730 5729 5728 5726 5725 5724 5722 5721 5719 5718 5716 5715 5713 5712 5711 5710 5709 5709 5708 5708 5707 5707 5707 5706 5706 5705 5705 5704 5703 5703 5702 5701
5732 5730 5728 5726 5725 5723 5721 5719 5718 5716 5715 5714 5712 5711 5709 5708 5706 5705 5703 5702 5701 5700 5699 5699 5698 5697 5697 5696 5696 5695 5695 5695 5694 5693 5693 5692 5691 5690
5723 5721 5719 5718 5716 5714 5712 5710 5708 5707 5705 5704 5702 5701 5699 5697 5696 5694 5693 5692 5691 5690 5689 5688 5688 5687 5687 5686 5686 5685 5685 5684 5684 5683 5682 5681 5680 5679
5714 5713 5711 5709 5707 5705 5703 5701 5699 5698 5696 5694 5693 5691 5690 5688 5686 5684 5683 5681 5681 5680 5679 5679 5678 5677 5677 5677 5676 5675 5675 5674 5673 5672 5672 5671 5670 5669
5705 5703 5702 5700 5698 5696 5694 5693 5691 5689 5687 5685 5684 5682 5681 5679 5677 5676 5674 5673 5672 5671 5670 5669 5668 5668 5667 5667 5667 5666 5664 5664 5663 5662 5661 5660 5659 5657
5696 5694 5692 5691 5689 5687 5686 5684 5682 5680 5678 5677 5675 5673 5672 5670 5668 5667 5666 5664 5663 5662 5661 5661 5659 5658 5657 5657 5657 5656 5655 5653 5652 5651 5650 5649 5648 5647
5687 5685 5684 5681 5680 5678 5677 5675 5673 5671 5669 5668 5666 5665 5663 5662 5660 5659 5657 5656 5655 5654 5653 5652 5651 5649 5649 5648 5647 5646 5645 5644 5642 5641 5639 5638 5637 5636
5678 5676 5675 5673 5671 5669 5667 5665 5664 5662 5661 5659 5658 5656 5655 5653 5652 5650 5649 5648 5647 5646 5645 5644 5642 5641 5640 5639 5638 5637 5636 5634 5633 5631 5630 5628 5627 5626